Preview of NWS' New Version of Forecast
This preview is not operational and should not be used for support decisions.
Latest weather observations around

Talladega Municipal Airport (KASN)

Using International System of Units (Switch to English Units)
Date/ Time (CST) Wind (kph) Vis. (km) Weather Sky Cond. Temp (°C) Rel. Humidity Wind Chill (°C) Heat Index (°C) Pressure Precip. (cm)
Air Dwpt 6 hour Altimeter (hPa) Sea level (hPa) 1 hr 3 hr 6 hr
Max Min
Jan 24 02:35 NW 18 8.05 Rain SCT007 OVC014 6 5     98% 2   1010.5   0    
Jan 24 02:15 NW 15 8.05 Heavy Drizzle BKN007 OVC014 6 6     99% 3   1010.5   0    
Jan 24 01:55 W 15 6.44 Drizzle BKN009 OVC012 6 6     98% 4   1010.2        
Jan 24 01:35 W 21 6.44 Light Rain OVC014 7 6     95% 4   1009.8        
Jan 24 01:15 W 18 8.05 Light Rain BKN012 BKN018 OVC024 8 7     95% 4   1010.2        
Jan 24 00:55 W 21 8.05 Light Rain SCT010 SCT018 OVC024 8 8     97% 5   1010.2        
Jan 24 00:35 W 22 6.44 Drizzle BKN010 OVC022 9 8     98% 5   1009.5        
Jan 24 00:15 WNW 24 6.44 Drizzle SCT005 OVC022 9 9     98% 6   1008.5        
Jan 23 23:55 W 26 6.44 Rain BKN005 BKN016 OVC032 12 12     100%     1008.8   0   1
Jan 23 23:35 WSW 9 16.09 Cloudy BKN005 BKN021 OVC035 12 12     100%     1007.8        
Jan 23 23:15 WSW 9 16.09 Cloudy SCT005 BKN021 OVC026 12 12     100%     1007.8        
Jan 23 22:55 W 11 16.09 Light Drizzle SCT005 BKN023 OVC090 12 12     100%     1007.8        
Jan 23 22:35 WSW 13 16.09 Cloudy BKN090 OVC110 12 12     100%     1008.1        
Jan 23 22:15 SSW 5 16.09 Light Drizzle OVC090 12 12     99%     1006.8        
Jan 23 21:55 SE 9 16.09 Cloudy SCT007 BKN080 OVC090 12 12     99%     1006.4   0    
Jan 23 21:35 ESE 5 11.27 Light Rain BKN002 BKN012 OVC100 12 12     100%     1006.8   0    
Jan 23 21:15 Calm 6.44 Light Rain BKN002 OVC007 12 12     100%     1008.1        
Jan 23 20:55 Calm 3.22 Drizzle BKN004 BKN022 OVC050 12 12     100%     1008.5   0 1  
Jan 23 20:35 Calm 2.82 Light Rain SCT019 BKN031 OVC050 12 12     100%     1008.1   0    
Jan 23 20:15 Calm 16.09 Heavy Rain SCT011 BKN050 OVC060 12 12     100%     1008.8   0    
Jan 23 19:55 Calm 11.27 Light Rain SCT011 BKN047 OVC060 12 12     100%     1008.5   0    
Jan 23 19:35 Calm 11.27 Rain BKN045 OVC060 12 12     100%     1009.5   0    
Jan 23 19:15 SSE 5 6.44 Rain SCT025 SCT033 OVC043 13 13     100%     1009.2   0    
Jan 23 18:55 Calm 8.05 Heavy Rain SCT025 OVC036 13 13     100%     1009.8   1    
Jan 23 18:35 W 9 11.27 Rain SCT023 BKN039 OVC047 13 13     100%     1009.5   0    
Jan 23 18:15 W 9 8.05 Rain SCT023 BKN031 OVC043 13 13     100%     1009.2   0    
Jan 23 17:55 WNW 8 8.05 Rain SCT021 BKN029 OVC045 13 13     98%     1008.5   1   3
Jan 23 17:35 NNW 11 8.05 Rain SCT007 BKN021 OVC030 13 13     98%     1008.5   0    
Jan 23 17:15 W 17 8.05 Heavy Rain BKN007 OVC013 14 14     100%     1009.2   0    
Jan 23 16:55 Calm 4.83 Heavy Rain SCT007 OVC013 14 14     100%     1008.5   1    
Jan 23 16:35 Calm 2.01 Rain SCT015 BKN022 OVC027 14 14     100%     1008.1   0    
Jan 23 16:15 Calm 2.41 Rain SCT017 OVC026 14 14     100%     1008.1   0    
Jan 23 15:55 Calm 4.02 Rain SCT016 BKN023 OVC040 14 14     100%     1008.1   1    
Jan 23 15:35 WNW 13 4.83 Heavy Rain SCT009 BKN019 OVC025 15 15     100%     1008.1   1    
Jan 23 15:15   4.83 Heavy Rain SCT006 BKN025 OVC050 15 15     97%     1008.8   0    
Jan 23 14:55 SE 18 11.27 Rain SCT030 BKN037 OVC050 16 15     92%     1006.4   0 1  
Jan 23 14:35 ESE 21 11.27 Rain SCT024 BKN034 OVC046 16 14     90%     1006.8   0    
Jan 23 14:15 SE 18 8.05 Heavy Rain SCT020 BKN044 OVC060 16 14     88%     1008.1   0    
Jan 23 13:55 SSE 15 16.09 Cloudy SCT031 BKN050 OVC070 16 14     88%     1009.2   0    
Jan 23 13:35 SSE 18 16.09 Cloudy SCT029 BKN049 OVC080 16 14     86%     1009.8        
Jan 23 13:15 SSE 15 16.09 Light Rain SCT025 BKN048 OVC080 16 14     87%     1009.8        
Jan 23 12:55 SSE 24 16.09 Light Drizzle SCT025 BKN038 OVC075 16 14     88%     1010.8   0    
Jan 23 12:35 SSE 26 16.09 Light Rain SCT025 BKN049 OVC075 16 14     90%     1011.9   0    
Jan 23 12:15 SE 13 16.09 Light Rain SCT015 BKN042 OVC050 15 14     94%     1012.5   0    
Jan 23 11:55 S 28 16.09 Light Rain SCT026 BKN047 OVC060 17 13     81%     1013.6        
Jan 23 11:35 SSE 18 16.09 Cloudy SCT026 BKN055 OVC080 17 13     76%     1014.2        
Jan 23 11:15 S 26 16.09 Cloudy SCT026 BKN080 OVC110 18 13     73%     1014.9        
Jan 23 10:55 SSE 24 16.09 Mostly Cloudy SCT026 SCT050 BKN080 17 13     76%     1015.2        
Jan 23 10:35 SSE 26 16.09 Cloudy SCT028 BKN080 OVC110 17 13     75%     1015.6        
Jan 23 10:15 SSE 30 16.09 Cloudy SCT030 BKN065 OVC110 17 12     71%     1016.3        
Jan 23 09:55 SSE 24 16.09 Cloudy BKN030 BKN049 OVC065 16 12     73%     1016.3        
Jan 23 09:35 SSE 22 16.09 Cloudy SCT029 SCT049 OVC065 16 11     73%     1016.6        
Jan 23 09:15 SSE 26 16.09 Cloudy OVC075 16 11     75%     1016.6        
Jan 23 08:55 SSE 26 16.09 Light Rain SCT050 OVC075 15 11     77%     1016.9        
Jan 23 08:35 SSE 21 16.09 Cloudy OVC060 15 11     75%     1017.6        
Jan 23 08:15 SSE 17 16.09 Cloudy OVC060 14 11     78%     1018        
Jan 23 07:55 SSE 22 16.09 Cloudy SCT060 OVC090 14 11     79%     1018        
Jan 23 07:35 SSE 18 16.09 Cloudy SCT060 OVC090 14 10     80%     1018        
Jan 23 07:15 SSE 26 16.09 Cloudy OVC060 13 10     81%     1018.6        
Jan 23 06:55 SSE 21 16.09 Cloudy OVC060 13 10     81%     1019        
Jan 23 06:35 SE 21 16.09 Cloudy BKN060 OVC080 13 10     82%     1019        
Jan 23 06:15 SE 17 16.09 Cloudy SCT021 SCT060 OVC080 13 10     82%     1019.3        
Jan 23 05:55 SE 18 16.09 Cloudy SCT021 SCT060 OVC080 12 10     84%     1019        
Jan 23 05:35 SE 24 16.09 Cloudy BKN021 BKN026 OVC085 12 9     82%     1019.7        
Jan 23 05:15 SE 21 16.09 Cloudy BKN021 BKN026 OVC090 12 9     81%     1019.7        
Jan 23 04:55 SE 18 16.09 Cloudy BKN021 OVC060 12 9     80%     1020.3        
Jan 23 04:35 SE 15 16.09 Cloudy SCT023 OVC060 12 9     80%     1020.3        
Jan 23 04:15 SE 17 16.09 Cloudy BKN023 OVC060 12 8     80%     1020.7        
Jan 23 03:55 SSE 11 16.09 Cloudy SCT021 OVC060 12 8     80%     1021.3        
Jan 23 03:35 SE 13 16.09 Cloudy SCT021 OVC060 11 8     78%     1021.3        
Jan 23 03:15 ESE 11 16.09 Cloudy SCT021 SCT048 OVC060 12 8     77%     1021.7        
Jan 23 02:55 ESE 13 16.09 Cloudy SCT023 BKN048 OVC060 12 8     76%     1022.4        
Jan 23 02:35 SE 13 16.09 Cloudy SCT023 OVC060 11 7     76%     1022.7        
Jan 23 02:15 SE 11 16.09 Cloudy SCT023 SCT049 OVC060 11 7     74%     1023        
Jan 23 01:55 SE 13 16.09 Cloudy SCT025 SCT049 OVC060 11 7     74%     1023        
Jan 23 01:35 SE 17 16.09 Cloudy SCT048 BKN060 OVC090 11 7     73%     1023.4        
Jan 23 01:15 SE 17 16.09 Cloudy SCT048 OVC050 11 6     71%     1023.4        
Jan 23 00:55 ESE 18 16.09 Cloudy SCT047 OVC050 11 6     71%     1023.7        
Jan 23 00:35 SE 17 16.09 Cloudy SCT028 BKN050 OVC055 11 6     70%     1024.1        
Jan 23 00:15 E 5 16.09 Cloudy OVC050 11 5     67%     1024.4        
Jan 22 23:55 ENE 9 16.09 Cloudy SCT032 BKN045 OVC075 10 4     67% 9   1024.7        
Jan 22 23:35 ENE 9 16.09 Cloudy SCT032 BKN045 OVC075 10 4     67% 8   1025.1        
Jan 22 23:15 NE 9 16.09 Cloudy SCT030 BKN060 OVC075 10 4     65% 9   1024.7        
Jan 22 22:55 N 5 16.09 Cloudy SCT040 OVC075 11 4     65%     1025.1        
Jan 22 22:35 E 11 16.09 Cloudy OVC075 11 4     64%     1025.1        
Jan 22 22:15 ESE 21 16.09 Cloudy OVC075 11 4     64%     1025.4        
Jan 22 21:55 SE 26 16.09 Cloudy OVC075 11 4     63%     1025.4        
Jan 22 21:35 ESE 17 16.09 Cloudy OVC075 11 4     62%     1025.4        
Jan 22 21:15 SE 28 16.09 Cloudy OVC065 11 4     62%     1025.7        
Jan 22 20:55 SE 24 16.09 Cloudy OVC065 11 4     61%     1025.7        
Jan 22 20:35 SE 13 16.09 Cloudy OVC065 11 4     60%     1026.4        
Jan 22 20:15 ESE 17 16.09 Cloudy OVC065 11 3     60%     1026.1        
Jan 22 19:55 E 15 16.09 Cloudy OVC065 11 3     60%     1026.4        
Jan 22 19:35 ESE 15 16.09 Cloudy OVC065 11 3     59%     1026.4        
Jan 22 19:15 ESE 13 16.09 Cloudy OVC065 10 3     59%     1026.8        
Jan 22 18:55 ESE 11 16.09 Cloudy OVC065 10 3     60%     1026.8        
Jan 22 18:35 ESE 9 16.09 Cloudy OVC065 10 3     60%     1026.8        
Jan 22 18:15 SE 8 16.09 Cloudy OVC065 10 2     60% 9   1027.1        
Jan 22 17:55 ESE 15 16.09 Cloudy OVC065 10 2     60% 8   1026.4        
Jan 22 17:35 SE 13 16.09 Cloudy OVC065 10 2     59% 8   1026.8        
Jan 22 17:15 SE 13 16.09 Cloudy OVC065 10 2     59% 8   1026.4        
Jan 22 16:55 SE 13 16.09 Cloudy OVC065 10 2     58%     1026.4        
Jan 22 16:35 ESE 11 16.09 Cloudy OVC065 10 2     58%     1026.8        
Jan 22 16:15 ESE 13 16.09 Cloudy OVC065 10 2     58%     1026.8        
Jan 22 15:55 SE 18 16.09 Cloudy OVC065 11 2     56%     1026.8        
Jan 22 15:35 SE 21 16.09 Cloudy OVC055 11 2     54%     1026.8        
Jan 22 15:15 SE 15 16.09 Cloudy OVC055 11 2     55%     1027.1        
Jan 22 14:55 SSE 15 16.09 Cloudy OVC055 11 2     55%     1027.4        
Jan 22 14:35 SE 18 16.09 Cloudy OVC055 10 1     53%     1027.4        
Jan 22 14:15 SE 24 16.09 Cloudy OVC055 11 1     52%     1027.8        
Jan 22 13:55 SE 22 16.09 Cloudy OVC055 11 1     52%     1028.5        
Jan 22 13:35 SE 17 16.09 Cloudy SCT033 OVC049 10 1     52%     1028.8        
Jan 22 13:15 SSE 17 16.09 Cloudy SCT033 SCT039 OVC049 10 1     52% 8   1029.1        
Jan 22 12:55 SSE 15 16.09 Cloudy OVC049 10 1     52%     1029.1        
Jan 22 12:35 ESE 18 16.09 Cloudy SCT038 OVC049 10 0     52% 7   1029.1        
Jan 22 12:15 ESE 18 16.09 Cloudy OVC047 10 0     52% 7   1030.1        
Jan 22 11:55 SSE 15 16.09 Cloudy OVC047 9 0     53% 7   1030.5        
Jan 22 11:35 SE 21 16.09 Cloudy SCT031 OVC043 10 0     50% 7   1030.8        
Jan 22 11:15 ESE 11 16.09 Cloudy SCT029 OVC041 9 -1     51% 7   1031.2        
Jan 22 10:55 SE 15 16.09 Cloudy SCT027 OVC035 9 -1     52% 6   1031.5        
Jan 22 10:35 SE 18 16.09 Cloudy OVC031 9 -1     52% 6   1031.8        
Jan 22 10:15 SE 18 16.09 Cloudy OVC029 8 -1     53% 5   1031.8        
Jan 22 09:55 ESE 15 16.09 Mostly Cloudy BKN025 8 -1     54% 5   1031.8        
Jan 22 09:35 ESE 15 16.09 Partly Cloudy SCT022 7 -2     53% 4   1031.8        
Jan 22 09:15 SE 17 16.09 Clear CLR 6 -3     51% 3   1032.2        
Jan 22 08:55 SE 11 16.09 Clear CLR 5 -7     43% 2   1032.5        
Jan 22 08:35 E 11 16.09 Clear CLR 4 -7     43% 1   1032.2        
Jan 22 08:15 E 13 16.09 Clear CLR 3 -8     46% 0   1032.2        
Jan 22 07:55 E 13 16.09 Clear CLR 2 -8     49% -2   1032.5        
Jan 22 07:35 E 15 16.09 Clear CLR 1 -8     49% -3   1032.5        
Jan 22 07:15 E 11 16.09 Clear CLR 1 -8     54% -3   1032.5        
Jan 22 06:55 ENE 11 16.09 Clear CLR -1 -7     66% -5   1032.2        
Jan 22 06:35 ENE 9 16.09 Clear CLR 0 -7     60% -3   1031.8        
Jan 22 06:15 NE 8 16.09 Clear CLR 0 -8     57% -2   1031.8        
Jan 22 05:55 E 5 16.09 Clear CLR -1 -7     62% -2   1031.5        
Jan 22 05:35 E 5 16.09 Clear CLR 0 -7     58% -2   1030.8        
Jan 22 05:15 E 8 16.09 Clear CLR -1 -6     64% -3   1030.5        
Jan 22 04:55 ENE 11 16.09 Clear CLR 0 -6     64% -4   1030.5        
Jan 22 04:35 NE 8 16.09 Clear CLR 1 -7     55% -1   1030.5        
Jan 22 04:20 ENE 5 16.09 Clear CLR 0 -6     64% -2   1030.1        
Jan 22 03:55 ENE 9 16.09 Clear CLR 0 -6     64% -3   1030.1        
Jan 22 03:35 NE 9 16.09 Clear CLR 0 -6     64% -3   1030.1        
Jan 22 03:15 NNE 8 16.09 Clear CLR 0 -6     68% -3   1030.1        
Jan 22 02:55 NE 8 16.09 Clear CLR -1 -5     75% -4   1029.8        
Jan 22 02:35 ENE 5 16.09 Clear CLR -2 -5     79% -4   1029.8        
Jan 22 02:15 Calm 16.09 Clear CLR -1 -7     67%     1030.1        
Jan 22 01:55 Calm 16.09 Clear CLR -1 -6     70%     1030.1        
Jan 22 01:35 Calm 16.09 Clear CLR -2 -6     72%     1030.1        
Jan 22 01:15 E 5 16.09 Clear CLR -2 -6     76% -4   1029.8        
Jan 22 00:55 Calm 16.09 Clear CLR -2 -4     85%     1029.8        
Jan 22 00:35 Calm 16.09 Clear CLR -2 -4     82%     1030.1        
Jan 22 00:15 Calm 16.09 Clear CLR -2 -5     79%     1029.8        
Jan 21 23:55 Calm 16.09 Clear CLR -1 -5     78%     1029.8        
Jan 21 23:35 Calm 16.09 Clear CLR 0 -7     61%     1029.5        
Jan 21 23:15 Calm 16.09 Clear CLR 1 -9     47%     1029.1        
Jan 21 22:55 E 5 16.09 Clear CLR 1 -10     46% -1   1029.1        
Jan 21 22:35 Calm 16.09 Clear CLR 1 -10     45%     1029.1        
Jan 21 22:15 E 8 16.09 Clear CLR 1 -10     45% -1   1029.1        
Jan 21 21:55 E 13 16.09 Clear CLR 1 -9     46% -3   1028.8        
Jan 21 21:35 E 9 16.09 Clear CLR 1 -9     46% -2   1028.8        
Jan 21 21:15 E 15 16.09 Clear CLR 1 -10     44% -3   1028.8        
Jan 21 20:55 E 13 16.09 Clear CLR 1 -9     49% -3   1029.1        
Jan 21 20:35 ENE 5 16.09 Clear CLR 0 -8     57% -2   1029.1        
Jan 21 20:15 ENE 8 16.09 Clear CLR 0 -7     60% -3   1029.1        
Jan 21 19:55 NE 5 16.09 Clear CLR 0 -8     56% -2   1029.1        
Jan 21 19:35 Calm 16.09 Clear CLR 1 -8     52%     1029.1        
Jan 21 19:15 Calm 16.09 Clear CLR 1 -8     55%     1029.1        
Jan 21 18:55 Calm 16.09 Clear CLR 1 -7     55%     1029.1        
Jan 21 18:35 Calm 16.09 Clear CLR 1 -8     52%     1029.1        
Jan 21 18:15 Calm 16.09 Clear CLR 2 -9     44%     1029.1        
Jan 21 17:55 NNE 5 16.09 Clear CLR 2 -8     49% 0   1029.1        
Jan 21 17:35 NNE 8 16.09 Clear CLR 3 -10     36% 1   1029.1        
Jan 21 17:15 N 5 16.09 Clear CLR 4 -12     31% 3   1029.5        
Jan 21 16:55 Calm 16.09 Clear CLR 5 -12     29%     1029.5        
Jan 21 16:35 N 5 16.09 Clear CLR 5 -12     27% 4   1029.5        
Jan 21 16:15 NNE 9 16.09 Clear CLR 5 -14     24% 3   1029.5        
Jan 21 15:55 Calm 16.09 Clear CLR 6 -14     24%     1029.5        
Jan 21 15:35 Calm 16.09 Clear CLR 6 -14     24%     1029.5        
Jan 21 15:15 Calm 16.09 Clear CLR 5 -14     24%     1029.8        
Jan 21 14:55 NE 11 16.09 Clear CLR 5 -13     25% 3   1029.5        
Jan 21 14:35 ENE 5 16.09 Clear CLR 5 -13     25% 4   1029.5        
Jan 21 14:15 ENE 11 16.09 Clear CLR 5 -14     24% 2   1029.5        
Jan 21 13:55 NE 11 16.09 Clear CLR 4 -14     26% 2   1029.8        
Jan 21 13:35 NNE 5 16.09 Clear CLR 4 -14     26% 2   1029.8        
Jan 21 13:15 NE 5 16.09 Clear CLR 4 -15     25% 3   1030.1        
Jan 21 12:55 ENE 8 16.09 Clear CLR 3 -14     27% 1   1030.5        
Jan 21 12:35 NNE 11 16.09 Clear CLR 3 -14     27% 0   1030.8        
Jan 21 12:15 N 15 16.09 Clear CLR 2 -14     29% -2   1031.2        
Jan 21 11:55 N 11 16.09 Clear CLR 2 -14     30% -2   1031.5        
Jan 21 11:35 NNE 8 16.09 Clear CLR 1 -14     32% -2   1031.8        
Jan 21 11:15 NE 15 16.09 Clear CLR 1 -13     35% -3   1032.2        
Jan 21 10:55 N 11 16.09 Clear CLR 0 -12     39% -3   1032.5        
Jan 21 10:35 ENE 17 16.09 Clear CLR 0 -13     37% -4   1032.5        
Jan 21 10:15 NNE 15 16.09 Clear CLR -1 -11     45% -5   1032.5        
Jan 21 09:55 NNE 8 16.09 Clear CLR -1 -11     45% -4   1032.5        
Jan 21 09:35 NNE 11 16.09 Clear CLR -2 -11     48% -6   1032.5        
Jan 21 09:15 NNE 11 16.09 Clear CLR -2 -12     47% -6   1032.2        
Jan 21 08:55 NNE 13 16.09 Clear CLR -2 -12     49% -7   1032.2        
Jan 21 08:35 NNE 17 16.09 Clear CLR -3 -12     48% -8   1031.8        
Jan 21 08:15 NNE 18 16.09 Clear CLR -3 -12     51% -9   1031.5        
Jan 21 07:55 NNE 21 16.09 Clear CLR -3 -11     55% -9   1030.8        
Jan 21 07:35 NNE 13 16.09 Clear CLR -4 -10     60% -8   1030.8        
Jan 21 07:15 NNE 11 16.09 Clear CLR -4 -11     60% -8   1030.1        
Jan 21 06:55 NNE 11 16.09 Clear CLR -4 -11     61% -8   1029.5        
Jan 21 06:35 NNE 8 16.09 Clear CLR -4 -10     63% -7   1029.1        
Jan 21 06:15 NNE 11 16.09 Clear CLR -4 -9     67% -8   1028.8        
Jan 21 05:55 NNE 8 16.09 Clear CLR -4 -8     72% -7   1028.8        
Jan 21 05:35 N 5 16.09 Clear CLR -4 -8     73% -6   1028.1        
Jan 21 05:15 N 5 16.09 Clear CLR -4 -8     72% -6   1027.8        
Jan 21 04:55 N 5 16.09 Clear CLR -4 -8     73% -6   1027.8        
Jan 21 04:35 N 5 16.09 Clear CLR -4 -8     73% -6   1027.1        
Jan 21 04:15 N 9 16.09 Clear CLR -3 -8     72% -7   1027.1        
Jan 21 03:55 NNE 8 16.09 Clear CLR -3 -8     72% -6   1027.1        
Jan 21 03:35 N 8 16.09 Clear CLR -3 -8     72% -6   1027.1        
Jan 21 03:15 N 8 16.09 Clear CLR -3 -8     72% -6   1027.1        
Jan 21 02:55 N 8 16.09 Clear CLR -3 -8     71% -6   1027.1        
May 15 12:55 ENE 11 16.09 Mostly Cloudy BKN055 BKN070 28 20     60%   30 1015.6        
May 15 11:15 E 11 16.09 Clear CLR 28 20     62%   29 1016.3        
May 14 20:35 Calm 16.09 Clear CLR 26 21     70%   28 1014.6        
May 14 18:35 N 8 16.09 Clear CLR 31 19     47%   32 1014.2        
May 14 09:35 Calm 16.09 Clear CLR 27 20     62%   29 1018.3        
May 14 05:55 Calm 11.27 Clear CLR 16 16     99%     1017.6        
May 14 01:15 Calm 16.09 Clear CLR 19 18     96%     1018        
May 14 00:15 Calm 16.09 Clear CLR 19 18     94%     1018.3        
May 13 11:15 NNW 13 16.09 Clear CLR 30 16     42%   30 1021.3        
May 12 15:35 WNW 11 16.09 Clear CLR 32 14     33%   31 1019.3        
May 12 07:55 Calm 16.09 Clear CLR 20 17     84%     1022.4        
Notice The following observation data may not be complete
May 12 06:35   16.09 Clear CLR          %              
May 11 23:55 Calm 16.09 Clear CLR 19 17     89%     1019.7        
May 11 17:15 S 11 16.09 Clear CLR 31 15     37%   31 1018        
Notice The following observation data may not be complete
Jun 12 07:15   16.09 Clear CLR          %              
Notice The following observation data may not be complete
Jun 12 06:35   16.09 Clear CLR          %              
Jun 11 15:15 SSE 15 16.09 Clear   31 21     55%   34 1020        
Notice The following observation data may not be complete
Jun 11 12:35   16.09 Mostly Cloudy SCT034 SCT046 BKN070          %              
Jun 11 12:15 SE 15 16.09 Mostly Cloudy SCT029 SCT050 BKN070 29 22     64%   32 1021.3        
Jun 11 10:15 SE 11 16.09 Partly Cloudy SCT021 28 22     73%   30 1022        
Notice The following observation data may not be complete
Jun 11 04:35   16.09 Clear CLR          %              
Jun 11 03:15 Calm 16.09 Mostly Cloudy BKN070 18 17     92%     1019.3        
Jun 10 17:55 SSE 11 16.09 Clear   29 17     49%   30 1017.6        
Notice The following observation data may not be complete
Jun 10 15:35   16.09 Partly Cloudy SCT075 SCT095          %              
Jun 09 20:35 Calm 16.09 Partly Cloudy SCT065 23 18     70%   24 1014.6        
Jun 09 15:15 Calm 16.09 Mostly Cloudy BKN065 28 15     44%   28 1014.6        
Jun 09 11:35 SSW 8 16.09 Mostly Cloudy BKN050 27 15     49%   27 1015.9        
Jun 09 09:55 Calm 16.09 Clear CLR 25 17     61%   25 1015.9        
Jun 09 04:15 Calm 16.09 Clear CLR 16 15     94%     1013.6        
Jun 09 01:15 Calm 16.09 Clear CLR 17 16     94%     1013.6        
Notice The following observation data may not be complete
Jun 08 21:15   16.09 Mostly Cloudy BKN060          %              
Notice The following observation data may not be complete
Jun 08 16:15   16.09 Partly Cloudy SCT055          %              
Jun 08 14:15 W 11 16.09 Clear CLR 27 15     48%   27 1012.5        
Jun 08 13:15 WSW 8 16.09 Partly Cloudy SCT040 SCT046 26 15     51%   26 1013.2        
Jun 08 08:15 Calm 16.09 Clear   19 16     81%     1013.9        
Jun 08 07:55 Calm 16.09 Clear CLR 18 16     88%     1013.9        
Jun 08 07:15 Calm 16.09 Mostly Cloudy BKN048 17 15     88%     1013.6        
Jun 07 23:15 Calm 16.09 Clear CLR 18 14     77%     1012.5        
Jun 07 22:35 Calm 16.09 Clear CLR 18 15     82%     1012.2        
Jun 07 19:35 N 9 16.09 Clear CLR 25 13     47%   25 1010.8        
Jun 07 19:15 N 8 16.09 Clear CLR 26 13     44%   26 1010.5        
Notice The following observation data may not be complete
Jun 07 15:15   16.09 Partly Cloudy SCT043 SCT050          %              
Jun 07 10:15 NE 13 16.09 Clear CLR 23 17     67%   24 1010.5        
Jun 07 09:55 NE 21 16.09 Clear CLR 23 17     67%   23 1010.5        
Jun 06 12:35 NE 15 16.09 Partly Cloudy SCT014 SCT038 24 22     86%   25 1009.5        
Jun 06 04:35 Calm 11.27 Partly Cloudy SCT036 SCT065 SCT110 21 21     98%     1009.2        
Notice The following observation data may not be complete
Jun 05 22:15   16.09 Clear CLR          %              
Jun 05 17:15 SSE 11 16.09 Thunderstorms and Rain OVC095 23 22     96%   24 1009.8   0